DateTimeUTC,F1_A11,F1_S11,BsB_S11,BsG_S11,BsR_S11,BbsB_S11,BbsG_S11,BbsR_S11,BaB_A11,BaG_A11,BaR_A11,Tu_S11,T_S11,Uu_S11,U_S11,P_S11,T1_A11
2021-05-25T23:00:00Z,00000200,20000000,,,,,,,-000.28,0000.30,0000.24,16.6,23.5,04.3,02.8,0670.9,30.8
2021-05-25T23:01:00Z,00000200,20000000,,,,,,,-000.02,-000.23,-000.17,16.6,23.6,04.1,02.7,0670.9,30.8
2021-05-25T23:02:00Z,00000200,20000000,,,,,,,-000.10,-000.12,0000.05,16.6,23.6,04.0,02.6,0670.9,30.8
2021-05-25T23:03:00Z,00000200,60000000,,,,,,,0000.57,0000.94,0001.06,16.6,23.6,04.0,02.6,0670.9,30.8
2021-05-25T23:04:00Z,00000200,40000000,0016.28,0011.48,0006.97,0001.60,0001.44,0000.96,0001.12,0001.12,0001.56,16.8,23.4,04.2,02.8,0672.0,30.8
2021-05-25T23:05:00Z,00000200,00000000,0016.51,0011.46,0006.62,0001.31,0001.17,0000.83,0000.58,0000.99,0001.75,16.9,23.4,04.1,02.8,0672.1,30.8
2021-05-25T23:06:00Z,00000200,00000000,0017.19,0011.02,0006.55,0001.33,0001.10,0000.83,0000.68,0000.87,0000.98,16.9,23.4,04.3,02.9,0672.1,30.8
2021-05-25T23:07:00Z,00000200,00000000,0016.87,0011.18,0007.26,0001.72,0001.14,0001.30,0000.41,0000.51,0001.41,16.9,23.4,04.3,02.9,0672.1,30.8
2021-05-25T23:08:00Z,00000200,00000000,0016.79,0011.57,0006.62,0001.76,0001.31,0000.86,0001.00,0001.00,0001.22,16.9,23.4,04.4,02.9,0672.1,30.8
2021-05-25T23:09:00Z,00000200,00000000,0016.87,0011.47,0006.93,0001.25,0001.14,0001.13,0000.71,0001.28,0001.63,16.9,23.3,04.3,02.9,0672.1,30.8
2021-05-25T23:10:00Z,00000200,00000000,0016.17,0011.80,0006.77,0001.54,0001.49,0001.31,0000.59,0000.83,0001.03,16.9,23.3,04.3,02.9,0672.1,30.8
2021-05-25T23:11:00Z,00000200,00000000,0016.79,0011.88,0006.82,0001.87,0001.38,0001.16,0000.71,0001.00,0001.66,16.8,23.3,04.3,02.9,0672.1,30.8
2021-05-25T23:12:00Z,00000200,00000000,0017.07,0011.27,0007.29,0001.57,0001.22,0001.18,0000.22,0000.68,0001.43,16.8,23.3,04.3,02.9,0672.1,30.8
2021-05-25T23:13:00Z,00000200,00000000,0017.53,0012.77,0006.86,0001.54,0001.50,0000.88,0000.94,0000.95,0001.03,16.8,23.3,04.3,02.9,0672.2,30.8
2021-05-25T23:14:00Z,00000200,00000000,0017.35,0012.28,0006.93,0002.39,0001.42,0001.21,0001.03,0000.83,0001.85,16.8,23.3,04.3,02.9,0672.2,30.8
2021-05-25T23:15:00Z,00000200,00000000,0017.51,0011.96,0007.32,0002.10,0001.33,0001.35,0001.01,0001.79,0001.87,16.8,23.3,04.3,02.9,0672.2,30.8
2021-05-25T23:16:00Z,00000200,00000000,0017.26,0012.13,0006.96,0001.51,0001.34,0001.15,0000.52,0000.48,0001.26,16.8,23.3,04.3,02.9,0672.1,30.8
2021-05-25T23:17:00Z,00000200,00000000,0016.25,0011.96,0006.92,0001.04,0001.37,0001.28,0000.65,0001.47,0001.23,16.9,23.3,04.3,02.9,0672.2,30.8
2021-05-25T23:18:00Z,00000200,00000000,0017.17,0011.45,0007.06,0001.86,0001.20,0001.16,0000.74,0000.63,0001.86,16.9,23.4,04.4,02.9,0672.1,30.8
2021-05-25T23:19:00Z,00000200,00000000,0016.13,0010.70,0006.53,0001.62,0001.06,0001.10,0000.70,0000.82,0000.88,16.9,23.3,04.2,02.8,0672.1,30.8
2021-05-25T23:20:00Z,00000200,00000000,0015.80,0010.94,0006.58,0001.73,0001.28,0001.32,0000.89,0001.13,0001.96,16.9,23.3,04.2,02.8,0672.1,30.8
2021-05-25T23:21:00Z,00000200,00000000,0015.31,0010.97,0006.62,0001.60,0001.29,0001.00,0000.31,0000.73,0001.12,16.9,23.3,04.3,02.9,0672.1,30.8
2021-05-25T23:22:00Z,00000200,00000000,0015.26,0010.10,0006.46,0001.52,0001.34,0000.93,0000.99,0000.60,0000.87,16.9,23.3,04.3,02.9,0672.1,30.9
2021-05-25T23:23:00Z,00000200,00000000,0015.83,0010.61,0006.36,0001.52,0001.35,0000.95,0000.37,0001.34,0001.44,16.9,23.3,04.3,02.9,0672.1,30.8
2021-05-25T23:24:00Z,00000200,00000000,0014.92,0010.16,0006.17,0001.31,0001.03,0000.94,0000.50,0000.67,0001.44,16.9,23.3,04.2,02.8,0672.2,30.8
2021-05-25T23:25:00Z,00000200,00000000,0014.88,0010.03,0005.75,0001.88,0001.04,0000.88,0000.84,0000.78,0001.15,16.9,23.3,04.2,02.8,0672.2,30.8
2021-05-25T23:26:00Z,00000200,00000000,0014.67,0009.49,0005.71,0001.30,0001.17,0000.71,0000.43,0000.61,0001.11,16.9,23.3,04.1,02.8,0672.1,30.8
2021-05-25T23:27:00Z,00000200,00000000,0014.02,0009.44,0005.94,0001.88,0000.91,0001.18,0000.65,0001.40,0001.38,16.8,23.3,04.1,02.8,0672.2,30.8
2021-05-25T23:28:00Z,00000200,00000000,0014.17,0009.75,0005.31,0001.12,0001.29,0000.75,0000.72,0000.60,0001.57,16.8,23.3,04.2,02.8,0672.1,30.8
2021-05-25T23:29:00Z,00000200,00000000,0014.69,0009.08,0005.65,0001.64,0001.30,0000.91,0000.91,0000.90,0001.18,16.8,23.3,04.3,02.9,0672.2,30.8
2021-05-25T23:30:00Z,00000200,00000000,0014.30,0009.09,0005.58,0001.32,0001.08,0001.18,0000.50,0001.07,0001.33,16.8,23.3,04.2,02.8,0672.2,30.8
2021-05-25T23:31:00Z,00000200,00000000,0012.94,0009.27,0005.07,0001.79,0001.28,0000.62,0000.64,0000.35,0001.09,16.9,23.3,04.2,02.8,0672.2,30.8
2021-05-25T23:32:00Z,00000200,00000000,0013.80,0009.57,0005.23,0001.45,0001.30,0001.01,0000.40,0000.88,0000.83,16.9,23.3,04.2,02.8,0672.3,30.9
2021-05-25T23:33:00Z,00000200,00000000,0013.93,0009.07,0005.52,0001.54,0000.96,0001.14,0000.34,0000.95,0001.44,16.9,23.4,04.2,02.8,0672.3,30.9
2021-05-25T23:34:00Z,00000200,00000000,0013.73,0009.04,0005.43,0001.50,0001.07,0001.04,0001.09,0000.70,0001.15,16.9,23.3,04.2,02.8,0672.3,30.8
2021-05-25T23:35:00Z,00000200,00000000,0013.01,0008.91,0005.10,0001.48,0001.04,0000.74,0000.45,0000.97,0001.61,16.9,23.3,04.1,02.8,0672.3,30.8
2021-05-25T23:36:00Z,00000200,00000000,0012.17,0008.61,0004.81,0001.25,0001.00,0000.83,0000.85,0000.71,0000.81,16.9,23.3,04.3,02.9,0672.3,30.8
2021-05-25T23:37:00Z,00000200,00000000,0012.11,0008.45,0004.90,0000.98,0000.98,0000.95,0000.81,0000.52,0001.40,16.9,23.3,04.2,02.8,0672.3,30.8
2021-05-25T23:38:00Z,00000200,00000000,0012.28,0008.00,0004.46,0000.98,0001.01,0001.12,0000.36,0001.08,0001.02,16.9,23.3,04.3,02.9,0672.3,30.8
2021-05-25T23:39:00Z,00000200,00000000,0013.00,0008.13,0004.58,0001.17,0000.99,0000.75,0000.62,0000.64,0001.12,16.9,23.3,04.3,02.9,0672.4,30.8
2021-05-25T23:40:00Z,00000200,00000000,0012.49,0008.44,0004.65,0000.50,0000.96,0000.71,0000.45,0000.95,0001.14,16.8,23.3,04.2,02.8,0672.4,30.8
2021-05-25T23:41:00Z,00000200,00000000,0011.15,0008.04,0004.71,0001.33,0000.99,0000.67,0000.70,0000.63,0001.32,16.8,23.3,04.3,02.9,0672.5,30.8
2021-05-25T23:42:00Z,00000200,00000000,0011.29,0007.98,0004.49,0000.84,0000.91,0000.61,0000.26,0000.34,0000.52,16.8,23.3,04.2,02.8,0672.5,30.8
2021-05-25T23:43:00Z,00000200,00000000,0012.78,0007.97,0005.01,0000.99,0000.96,0000.85,0000.69,0000.97,0001.35,16.8,23.3,04.3,02.9,0672.5,30.8
2021-05-25T23:44:00Z,00000200,00000000,0012.80,0008.26,0004.60,0001.45,0001.27,0000.90,0001.02,0001.00,0001.12,16.8,23.2,04.2,02.8,0672.6,30.8
2021-05-25T23:45:00Z,00000200,00000000,0012.56,0007.87,0004.89,0001.04,0000.97,0001.33,0000.47,0000.83,0001.36,16.8,23.2,04.3,02.9,0672.5,30.8
2021-05-25T23:46:00Z,00000200,00000000,0012.58,0008.18,0004.79,0001.09,0000.84,0000.72,0000.81,0001.31,0001.40,16.8,23.2,04.1,02.8,0672.5,30.8
2021-05-25T23:47:00Z,00000200,00000000,0012.16,0008.21,0004.62,0001.14,0000.93,0000.81,0000.57,0000.61,0000.64,16.9,23.3,04.3,02.9,0672.5,30.8
2021-05-25T23:48:00Z,00000200,00000000,0011.88,0007.91,0004.67,0001.66,0001.21,0000.97,0000.39,0000.63,0000.95,16.9,23.3,04.2,02.8,0672.5,30.8
2021-05-25T23:49:00Z,00000200,00000000,0011.92,0007.55,0004.34,0001.02,0000.74,0000.87,0000.90,0000.51,0001.25,16.9,23.3,04.2,02.8,0672.4,30.8
2021-05-25T23:50:00Z,00000200,00000000,0010.96,0007.37,0004.41,0000.89,0000.66,0001.27,-000.05,0000.85,0001.07,16.9,23.3,04.2,02.9,0672.4,30.8
2021-05-25T23:51:00Z,00000200,00000000,0010.36,0007.23,0004.02,0001.31,0000.83,0000.95,0000.79,0000.32,0000.96,16.9,23.3,04.3,02.9,0672.4,30.8
2021-05-25T23:52:00Z,00000200,00000000,0011.76,0007.23,0004.09,0000.97,0000.90,0000.67,0000.45,0000.94,0001.00,16.9,23.3,04.2,02.8,0672.4,30.8
2021-05-25T23:53:00Z,00000200,00000000,0010.70,0007.18,0003.87,0001.13,0000.96,0000.98,0000.91,0001.02,0001.16,16.9,23.3,04.2,02.8,0672.3,30.8
2021-05-25T23:54:00Z,00000200,00000000,0010.43,0006.51,0003.64,0000.91,0000.93,0000.81,0000.73,0000.77,0001.32,16.8,23.2,04.2,02.9,0672.4,30.8
2021-05-25T23:55:00Z,00000200,00000000,0010.12,0007.13,0003.83,0000.94,0000.84,0000.70,0000.24,0000.56,0001.08,16.8,23.2,04.2,02.8,0672.3,30.8
2021-05-25T23:56:00Z,00000200,00000000,0010.94,0006.79,0003.92,0001.01,0000.90,0000.80,0000.74,0000.85,0000.68,16.8,23.2,04.2,02.8,0672.2,30.8
2021-05-25T23:57:00Z,00000200,40000000,,,,,,,0000.22,0000.16,0000.61,16.8,23.3,04.2,02.8,0672.2,30.8
2021-05-25T23:58:00Z,00000200,60000000,,,,,,,-000.48,0000.17,0000.02,16.6,23.4,04.1,02.7,0671.3,30.8
2021-05-25T23:59:00Z,00000200,20000000,,,,,,,0000.20,-000.38,-000.02,16.5,23.5,04.0,02.6,0671.2,30.8
